1998-067WJ (59559 NORAD) Tracking and Keplerian Element Data

This shows tracking and keplerian element data for the satellite.

Feedback or suggestion? Click here.




ElementValue
Catalog59559
Name1998-067WJ
Epoch Orbit788
Epoch Day159.84045362
Epoch Year2024
RAAN359.9724
Inclination51.6363
Eccentricity0.000604
Argument of Perigee228.7826
Mean Anonmoly131.2647
Mean Motion15.5931877
Decay Rate0.00111478
L11 59559U 98067WJ 24159.84045362 .00111478 00000+0 13743-2 0 9997
L22 59559 51.6363 359.9724 0006040 228.7826 131.2647 15.59318770 7886



Live tracking and technical data element details for 1998-067WJ (NORAD 59559). 1998-067WJ can be tracked NOW for your location showing map with azimuth and elevation plus other details from your city location.







IsCatalogInMostPopularTable: catalog: 59559, numindb: 11
Update: records affected: 1



GetName: 59559 1998-067WJ

Hit Count: updated at: Fri, 14 Jun 2024 18:17:16 GMT